This demonstration page uses our WeatherBlox Daily Observations layout. Learn more.

Left ArrowRight Arrow

34.74481, -87.66753

Hourly Observations for May 1, 2017

Temp ( °F °C ) Dew Point ( °F °C ) Humidity (%) Winds ( mph kmh ) Pressure ( in mb ) Visibility ( mi km ) Precip ( " mm )
12:42 am 00:42 Cloudy with Rain 67 19.4 64 17.8 91 91 S 13 20 29.80 1009 4 6 0.03 0.76
12:53 am 00:53 Cloudy with Light Rain 67 19.4 64 17.8 91 91 S 12 19 29.79 1009 9 14 0.03 0.76
1:24 am 01:24 Cloudy with Heavy Rain 60 15.6 55 12.8 84 84 WSW 13 20 29.83 1010 5 8 0.05 1.27
1:36 am 01:36 Cloudy with Light Rain 60 15.6 55 12.8 84 84 WSW 10 17 29.83 1010 10 16 0.05 1.27
1:53 am 01:53 Cloudy with Light Rain 60 15.6 55 12.8 84 84 WSW 10 17 29.81 1009 10 16 0.06 1.52
2:53 am 02:53 Cloudy with Light Rain 59 15 55 12.8 87 87 S 8 13 29.80 1009 10 16 0.05 1.27
3:53 am 03:53 Cloudy 58 14.4 54 12.2 87 87 S 7 11 29.80 1009 10 16 0.00 0.03
4:53 am 04:53 Mostly Clear 57 13.9 52 11.1 83 83 SSW 9 15 29.78 1008 10 16 0.00 0.00
5:53 am 05:53 Clear 55 12.8 48 8.9 77 77 SSW 6 9 29.79 1009 10 16 0.00 0.00
6:53 am 06:53 Sunny 56 13.3 47 8.3 72 72 SSW 10 17 29.80 1009 10 16 0.00 0.00
7:53 am 07:53 Sunny 59 15 48 8.9 67 67 SSW 14 22 29.82 1010 10 16 0.00 0.00
8:53 am 08:53 Sunny 61 16.1 46 7.8 58 58 SW 14 22 29.82 1010 10 16 0.00 0.00
9:53 am 09:53 Sunny 63 17.2 43 6.1 48 48 SW 15 24 29.81 1010 10 16 0.00 0.00
10:53 am 10:53 Sunny 65 18.3 43 6.1 45 45 SW 18 30 29.81 1010 10 16 0.00 0.00
11:53 am 11:53 Sunny 69 20.6 44 6.7 41 41 SW 23 37 29.81 1010 10 16 0.00 0.00
12:53 pm 12:53 Sunny 70 21.1 45 7.2 41 41 WSW 28 44 29.82 1010 10 16 0.00 0.00
1:53 pm 13:53 Sunny 70 21.1 44 6.7 39 39 WSW 29 46 29.83 1010 10 16 0.00 0.00
2:53 pm 14:53 Sunny 71 21.7 46 7.8 41 41 WSW 24 39 29.83 1010 10 16 0.00 0.00
3:53 pm 15:53 Mostly Sunny 71 21.7 47 8.3 42 42 WSW 22 35 29.84 1010 10 16 0.00 0.00
4:53 pm 16:53 Sunny 69 20.6 44 6.7 41 41 WSW 24 39 29.86 1011 10 16 0.00 0.00
5:53 pm 17:53 Sunny 68 20 44 6.7 42 42 W 21 33 29.87 1012 10 16 0.00 0.00
6:53 pm 18:53 Sunny 66 18.9 43 6.1 43 43 WSW 15 24 29.89 1012 10 16 0.00 0.00
7:53 pm 19:53 Clear 60 15.6 46 7.8 60 60 WSW 6 9 29.89 1012 10 16 0.00 0.00
8:53 pm 20:53 Clear 58 14.4 44 6.7 60 60 WSW 8 13 29.91 1013 10 16 0.00 0.00
9:53 pm 21:53 Clear 57 13.9 44 6.7 62 62 SSW 6 9 29.93 1013 10 16 0.00 0.00
10:53 pm 22:53 Clear 56 13.3 44 6.7 65 65 WSW 3 6 29.93 1014 10 16 0.00 0.00
11:53 pm 23:53 Clear 51 10.6 44 6.7 77 77 S 3 6 29.95 1014 10 16 0.00 0.00

Powered by AerisWeather